Location: Austin
(30.3000°N, 97.7500°W)
Time: 08:26:40
(UTC-06:00)

Fermi - Pass Details

Date: 19 November 2025
Orbit: 492 x 503 km, 25.6° (Epoch: 07 December)

Event Time Altitude Azimuth Distance (km) Brightness Sun altitude
Rises 18:14:10 0° 264° (W) 2,561 9.2 -9.3°
Reaches altitude 10° 18:16:31 10° 254° (WSW) 1,681 8.0 -9.8°
Maximum altitude 18:20:01 32° 190° (S) 856 5.1 -10.5°
Drops below altitude 10° 18:23:32 10° 125° (SE) 1,686 5.9 -11.2°
Enters shadow 18:24:13 - 121° (ESE) 1,932 6.2 -11.4°
